Hourly Weather Juchipila

Today, 2 December, Wednesday

Time Temperature Precipitation Wind Pressure Humidity
00:00 +16°C° 0 mm 1 mps 644 mmHg 79%
01:00 +15°C° 0 mm 1 mps 644 mmHg 81%
02:00 +15°C° 0 mm 1 mps 643 mmHg 83%
03:00 +14°C° 0 mm 1 mps 643 mmHg 84%
04:00 +14°C° 0 mm 1 mps 643 mmHg 86%
05:00 +13°C° 0 mm 1 mps 643 mmHg 87%
06:00 +15°C° 0 mm 1 mps 644 mmHg 80%
07:00 +16°C° 0 mm 1 mps 645 mmHg 74%
08:00 +19°C° 0 mm 1 mps 646 mmHg 67%
09:00 +20°C° 0 mm 2 mps 646 mmHg 55%
10:00 +22°C° 0 mm 3 mps 646 mmHg 43%
11:00 +25°C° 0 mm 3 mps 647 mmHg 31%
12:00 +26°C° 0 mm 4 mps 646 mmHg 29%
13:00 +26°C° 0 mm 4 mps 645 mmHg 27%
14:00 +27°C° 0 mm 4 mps 645 mmHg 25%
15:00 +25°C° 0 mm 4 mps 644 mmHg 28%
16:00 +24°C° 0 mm 3 mps 644 mmHg 30%
17:00 +23°C° 0 mm 2 mps 644 mmHg 33%
18:00 +20°C° 0 mm 2 mps 644 mmHg 36%
19:00 +20°C° 0 mm 1 mps 644 mmHg 38%
20:00 +19°C° 0 mm 1 mps 644 mmHg 41%
21:00 +18°C° 0 mm 1 mps 644 mmHg 44%
22:00 +16°C° 0 mm 1 mps 644 mmHg 46%
23:00 +16°C° 0 mm 1 mps 644 mmHg 49%

Tomorrow, 3 December, Thursday

Time Temperature Precipitation Wind Pressure Humidity
00:00 +15°C° 0 mm 1 mps 644 mmHg 53%
01:00 +15°C° 0 mm 1 mps 644 mmHg 57%
02:00 +14°C° 0 mm 1 mps 643 mmHg 61%
03:00 +13°C° 0 mm 0 mps 643 mmHg 63%
04:00 +12°C° 0 mm 0 mps 643 mmHg 65%
05:00 +12°C° 0 mm 0 mps 642 mmHg 67%
06:00 +13°C° 0 mm 0 mps 643 mmHg 62%
07:00 +16°C° 0 mm 1 mps 644 mmHg 57%
08:00 +19°C° 0 mm 1 mps 645 mmHg 51%
09:00 +20°C° 0 mm 2 mps 646 mmHg 47%
10:00 +22°C° 0 mm 3 mps 646 mmHg 42%
11:00 +25°C° 0 mm 4 mps 646 mmHg 38%
12:00 +25°C° 0 mm 5 mps 645 mmHg 36%
13:00 +26°C° 0 mm 6 mps 645 mmHg 34%
14:00 +27°C° 0 mm 6 mps 644 mmHg 32%
15:00 +25°C° 0 mm 5 mps 644 mmHg 37%
16:00 +23°C° 0 mm 4 mps 644 mmHg 42%
17:00 +22°C° 0 mm 3 mps 643 mmHg 47%
18:00 +20°C° 0 mm 3 mps 644 mmHg 52%
19:00 +19°C° 0 mm 2 mps 644 mmHg 57%
20:00 +18°C° 0 mm 2 mps 644 mmHg 61%
21:00 +18°C° 0 mm 1 mps 644 mmHg 66%
22:00 +18°C° 0 mm 1 mps 644 mmHg 70%
23:00 +16°C° 0 mm 1 mps 644 mmHg 74%

Day after tomorrow, 4 December, Friday

Time Temperature Precipitation Wind Pressure Humidity
00:00 +16°C° 0 mm 1 mps 644 mmHg 77%
01:00 +15°C° 0 mm 1 mps 643 mmHg 80%
02:00 +15°C° 0 mm 1 mps 643 mmHg 83%
03:00 +15°C° 0 mm 1 mps 643 mmHg 86%
04:00 +14°C° 0 mm 1 mps 643 mmHg 88%
05:00 +14°C° 0 mm 1 mps 642 mmHg 90%
06:00 +15°C° 0 mm 2 mps 643 mmHg 85%
07:00 +17°C° 0 mm 2 mps 644 mmHg 80%
08:00 +18°C° 0 mm 2 mps 644 mmHg 74%
09:00 +20°C° 0 mm 4 mps 645 mmHg 65%
10:00 +22°C° 0 mm 5 mps 645 mmHg 56%
11:00 +24°C° 0 mm 7 mps 645 mmHg 46%
12:00 +24°C° 0.2 mm 7 mps 644 mmHg 47%
13:00 +24°C° 0.2 mm 7 mps 644 mmHg 47%
14:00 +24°C° 0.2 mm 7 mps 644 mmHg 47%
15:00 +22°C° 0.5 mm 6 mps 643 mmHg 56%
16:00 +20°C° 0.5 mm 5 mps 643 mmHg 65%
17:00 +19°C° 0.5 mm 4 mps 643 mmHg 74%
18:00 +18°C° 0.1 mm 4 mps 643 mmHg 79%
19:00 +17°C° 0.1 mm 3 mps 644 mmHg 83%
20:00 +16°C° 0.1 mm 3 mps 644 mmHg 87%
21:00 +16°C° 0 mm 2 mps 644 mmHg 89%
22:00 +15°C° 0 mm 2 mps 644 mmHg 91%
23:00 +15°C° 0 mm 2 mps 644 mmHg 93%

5 December, Saturday

Time Temperature Precipitation Wind Pressure Humidity
00:00 +14°C° 0 mm 2 mps 644 mmHg 94%
01:00 +14°C° 0 mm 2 mps 643 mmHg 95%
02:00 +14°C° 0 mm 2 mps 643 mmHg 97%
03:00 +14°C° 0 mm 1 mps 644 mmHg 95%
04:00 +14°C° 0 mm 1 mps 644 mmHg 94%
05:00 +15°C° 0 mm 1 mps 644 mmHg 92%
06:00 +15°C° 0 mm 1 mps 645 mmHg 86%
07:00 +16°C° 0 mm 1 mps 646 mmHg 81%
08:00 +16°C° 0 mm 1 mps 647 mmHg 75%
09:00 +19°C° 0 mm 1 mps 647 mmHg 64%
10:00 +21°C° 0 mm 1 mps 647 mmHg 54%
11:00 +22°C° 0 mm 1 mps 647 mmHg 43%
12:00 +23°C° 0 mm 1 mps 647 mmHg 38%
13:00 +24°C° 0 mm 1 mps 646 mmHg 33%
14:00 +25°C° 0 mm 2 mps 645 mmHg 28%
15:00 +23°C° 0 mm 1 mps 645 mmHg 30%
16:00 +22°C° 0 mm 1 mps 645 mmHg 33%
17:00 +21°C° 0 mm 1 mps 645 mmHg 35%
18:00 +20°C° 0 mm 1 mps 645 mmHg 37%
19:00 +18°C° 0 mm 2 mps 645 mmHg 40%
20:00 +16°C° 0 mm 2 mps 646 mmHg 42%
21:00 +16°C° 0 mm 2 mps 646 mmHg 41%
22:00 +15°C° 0 mm 2 mps 646 mmHg 39%
23:00 +15°C° 0 mm 2 mps 646 mmHg 38%

6 December, Sunday

Time Temperature Precipitation Wind Pressure Humidity
00:00 +14°C° 0 mm 2 mps 645 mmHg 36%
01:00 +14°C° 0 mm 2 mps 645 mmHg 35%
02:00 +13°C° 0 mm 2 mps 645 mmHg 33%
03:00 +13°C° 0 mm 2 mps 645 mmHg 33%
04:00 +13°C° 0 mm 2 mps 645 mmHg 33%
05:00 +13°C° 0 mm 2 mps 645 mmHg 33%
06:00 +13°C° 0.1 mm 1 mps 645 mmHg 35%
07:00 +13°C° 0.1 mm 1 mps 646 mmHg 38%
08:00 +13°C° 0.1 mm 1 mps 646 mmHg 41%
09:00 +14°C° 0.1 mm 1 mps 647 mmHg 44%
10:00 +15°C° 0.1 mm 1 mps 647 mmHg 48%
11:00 +16°C° 0.1 mm 1 mps 647 mmHg 51%
12:00 +18°C° 0 mm 1 mps 646 mmHg 49%
13:00 +18°C° 0 mm 1 mps 646 mmHg 48%
14:00 +19°C° 0 mm 1 mps 645 mmHg 46%
15:00 +19°C° 0 mm 1 mps 645 mmHg 48%
16:00 +18°C° 0 mm 1 mps 645 mmHg 50%
17:00 +18°C° 0 mm 1 mps 645 mmHg 52%
18:00 +16°C° 0 mm 1 mps 645 mmHg 59%
19:00 +15°C° 0 mm 1 mps 645 mmHg 65%
20:00 +14°C° 0 mm 1 mps 645 mmHg 72%
21:00 +13°C° 0 mm 1 mps 645 mmHg 75%
22:00 +13°C° 0 mm 1 mps 645 mmHg 79%
23:00 +12°C° 0 mm 1 mps 645 mmHg 83%

7 December, Monday

Time Temperature Precipitation Wind Pressure Humidity
00:00 +12°C° 0 mm 1 mps 644 mmHg 84%
01:00 +11°C° 0 mm 1 mps 644 mmHg 86%
02:00 +11°C° 0 mm 1 mps 644 mmHg 87%
03:00 +11°C° 0 mm 1 mps 644 mmHg 88%
04:00 +11°C° 0 mm 1 mps 643 mmHg 88%
05:00 +10°C° 0 mm 1 mps 643 mmHg 89%
06:00 +12°C° 0 mm 1 mps 644 mmHg 83%
07:00 +13°C° 0 mm 1 mps 645 mmHg 77%
08:00 +14°C° 0 mm 1 mps 645 mmHg 72%
09:00 +18°C° 0 mm 1 mps 646 mmHg 64%
10:00 +20°C° 0 mm 1 mps 646 mmHg 57%
11:00 +23°C° 0 mm 1 mps 647 mmHg 49%
12:00 +24°C° 0 mm 2 mps 646 mmHg 45%
13:00 +25°C° 0 mm 2 mps 646 mmHg 40%
14:00 +25°C° 0 mm 3 mps 646 mmHg 35%
15:00 +24°C° 0 mm 3 mps 645 mmHg 38%
16:00 +23°C° 0 mm 2 mps 645 mmHg 41%
17:00 +21°C° 0 mm 2 mps 645 mmHg 44%
18:00 +21°C° 0 mm 1 mps 645 mmHg 47%
19:00 +21°C° 0 mm 1 mps 645 mmHg 50%
20:00 +20°C° 0 mm 1 mps 646 mmHg 53%
21:00 +17°C° 0 mm 0 mps 646 mmHg 56%
22:00 +17°C° 0 mm 0 mps 646 mmHg 59%
23:00 +16°C° 0 mm 0 mps 646 mmHg 61%
Show more